CST,Max TemperatureF,Mean TemperatureF,Min TemperatureF,Max Dew PointF,MeanDew PointF,Min DewpointF,Max Humidity, Mean Humidity, Min Humidity, Max Sea Level PressureIn, Mean Sea Level PressureIn, Min Sea Level PressureIn, Max VisibilityMiles, Mean VisibilityMiles, Min VisibilityMiles, Max Wind SpeedMPH, Mean Wind SpeedMPH, Max Gust SpeedMPH,PrecipitationIn, CloudCover, Events, WindDirDegrees
2011-11-1,46,40,33,37,30,27,87,67,50,30.06,29.88,29.74,10,9,7,15,8,18,0.00,2,Rain,269
2011-11-2,42,35,28,28,25,21,86,69,42,30.26,30.20,30.10,10,9,7,15,6,24,0.00,1,,278
2011-11-3,50,36,21,21,17,10,93,56,20,30.22,30.18,30.12,10,10,7,16,5,21,0.00,0,,209
2011-11-4,53,42,32,19,17,12,56,39,19,30.11,30.00,29.87,10,10,7,24,12,37,0.00,0,,171
2011-11-5,51,43,35,36,32,23,87,61,47,29.87,29.67,29.52,10,10,7,21,15,28,0.00,0,,149
2011-11-6,46,40,35,43,35,21,100,78,56,29.65,29.49,29.38,10,8,3,22,15,33,0.02,8,Rain,186
2011-11-7,35,34,32,25,23,21,75,68,60,30.14,29.95,29.73,10,10,7,26,17,34,0.00,7,,247
2011-11-8,44,30,17,27,20,16,100,73,34,30.18,30.15,30.11,10,9,0,12,2,,0.00,1,Fog,197
2011-11-9,35,27,19,27,22,18,93,75,56,30.09,30.04,29.99,10,9,4,17,6,24,0.00,2,Snow,263
2011-11-10,32,31,30,28,27,23,93,86,69,30.03,30.00,29.96,10,8,5,21,16,26,0.00,8,Snow,299
2011-11-11,46,35,24,28,25,19,93,63,43,29.54,29.50,29.47,10,9,7,13,8,18,0.00,0,,226
2011-11-12,51,37,23,28,25,21,100,69,35,29.47,29.33,29.12,10,8,3,12,3,,0.00,0,,122
2011-11-13,41,34,28,28,27,23,93,80,49,29.31,29.22,29.07,10,8,5,17,8,22,0.00,6,,256
2011-11-14,41,34,26,30,27,23,100,78,57,29.46,29.33,29.27,10,10,7,14,7,18,0.00,3,Snow,227
2011-11-15,33,27,21,30,25,14,100,87,65,29.80,29.58,29.47,10,8,0,30,7,36,0.00,6,Snow,249
2011-11-16,23,19,15,19,14,10,86,79,68,30.04,29.93,29.81,10,8,1,18,13,25,0.00,8,Snow,264
2011-11-17,19,14,8,14,8,3,92,74,49,30.08,30.03,29.92,10,10,7,12,8,,0.00,4,Snow,268
2011-11-18,26,22,19,27,18,12,100,81,63,29.75,29.67,29.62,10,8,0,15,8,21,0.04,6,Snow,111
2011-11-19,19,16,12,18,12,5,93,83,67,30.12,29.93,29.78,10,9,3,16,11,22,0.00,7,Snow,334
2011-11-20,19,12,6,7,5,3,85,74,54,30.31,30.24,30.18,10,9,2,8,4,,0.00,4,Snow,213
2011-11-21,30,18,6,21,13,3,100,83,64,30.18,30.15,30.13,10,9,4,12,6,,0.00,1,,163
2011-11-22,33,28,23,32,29,23,100,96,87,30.13,30.02,29.95,7,4,2,14,8,21,0.00,7,,183
2011-11-23,48,39,30,32,30,28,100,79,50,29.98,29.89,29.80,10,6,3,12,7,16,0.00,2,,194
2011-11-24,51,42,30,32,30,28,93,73,44,29.78,29.68,29.63,10,7,5,9,6,,0.00,0,,183
2011-11-25,41,34,26,32,31,25,100,89,70,29.73,29.68,29.65,10,8,4,10,4,16,0.00,1,,40
2011-11-26,33,32,30,34,31,28,100,98,93,30.10,29.90,29.71,10,5,1,22,10,30,0.00,8,Rain-Snow,335
2011-11-27,28,26,23,28,23,19,100,84,74,30.21,30.15,30.07,10,8,4,18,11,25,0.00,8,Snow,306
2011-11-28,42,32,23,30,23,19,93,74,56,30.17,29.94,29.84,10,10,7,18,11,26,0.00,0,,217
2011-11-29,33,20,8,19,12,5,100,68,38,30.32,30.23,30.00,10,10,7,9,3,,0.00,0,Snow,203
2011-11-30,32,26,19,23,21,14,86,78,69,30.09,29.91,29.85,10,10,7,13,2,16,0.00,6,Snow,357